La Grange, TX

11:15 AM CST on November 21, 2019 (GMT -0600)
La Grange

Weather History for K3T5 - August, 2019

Change the Weather History Date:

Thursday, August 8, 2019

  Actual Average (KAUS) Record (KAUS)
Temperature  
Mean Temperature 90 °F -  
Max Temperature 102 °F 94 °F 108 °F (2003)
Min Temperature 77 °F 70 °F 68 °F (1969)
Cooling Degree Days 24    
Growing Degree Days 40 (Base 50)    
Moisture  
Dew Point 77 °F    
Average Humidity 71    
Maximum Humidity 100    
Minimum Humidity 37    
Precipitation  
Precipitation 0.00 in - - ()
Sea Level Pressure  
Sea Level Pressure 29.90 in    
Wind  
Wind Speed 3 mph (South)    
Max Wind Speed 9 mph    
Max Gust Speed -    
Visibility 9 miles    
Events      
Averages and records for this station are not official NWS values.
T = Trace of Precipitation, MM = Missing Value Source: NWS Daily Summary

Daily Weather History Graph

Daily Weather History Graph

Search for Another Location

Airport or City:

Astronomy

Aug. 08, 2019 Rise Set
Actual Time 6:51 AM CDT 8:15 PM CDT
Civil Twilight 6:25 AM CDT 8:40 PM CDT
Nautical Twilight 5:55 AM CDT 9:11 PM CDT
Astronomical Twilight 5:23 AM CDT 9:42 PM CDT
Moon 2:52 PM CDT (8/8) 1:11 AM CDT (8/8)
Length of Visible Light 14h 15m
Length of Day
13h 24m
First Quarter, 60% of the Moon is Illuminated
Aug 8
First Quarter
Aug 15
Full
Aug 23
Last Quarter
Aug 30
New
Sep 5
First Quarter

Hourly Weather History & Observations

Time (CDT) Temp. Heat Index Dew Point Humidity Pressure Visibility Wind Dir Wind Speed Gust Speed Precip Events Conditions
12:55 AM 81.5 °F 91.8 °F 80.6 °F 97% 29.91 in 10.0 mi South 3.5 mph - N/A   Scattered Clouds
1:35 AM 80.8 °F 90.0 °F 80.8 °F 100% 29.92 in 10.0 mi Calm Calm - N/A   Scattered Clouds
2:15 AM 80.1 °F 87.4 °F 80.1 °F 100% 29.92 in 10.0 mi Calm Calm - N/A   Scattered Clouds
2:35 AM 80.1 °F 87.4 °F 80.1 °F 100% 29.92 in 10.0 mi Calm Calm - N/A   Scattered Clouds
2:55 AM 79.9 °F - 79.9 °F 100% 29.91 in 10.0 mi Calm Calm - N/A   Scattered Clouds
3:15 AM 79.9 °F - 79.9 °F 100% 29.91 in 10.0 mi Calm Calm - N/A   Scattered Clouds
3:35 AM 79.9 °F - 79.9 °F 100% 29.91 in 10.0 mi Calm Calm - N/A   Mostly Cloudy
3:55 AM 80.1 °F 87.4 °F 80.1 °F 100% 29.91 in 10.0 mi Calm Calm - N/A   Overcast
4:15 AM 80.1 °F 87.4 °F 80.1 °F 100% 29.91 in 10.0 mi Calm Calm - N/A   Overcast
4:35 AM 79.7 °F - 79.7 °F 100% 29.91 in 10.0 mi Calm Calm - N/A   Mostly Cloudy
4:55 AM 79.2 °F - 79.2 °F 100% 29.90 in 7.0 mi Calm Calm - N/A   Scattered Clouds
5:15 AM 79.0 °F - 79.0 °F 100% 29.90 in 7.0 mi Calm Calm - N/A   Scattered Clouds
5:35 AM 78.8 °F - 78.8 °F 100% 29.90 in 7.0 mi Calm Calm - N/A   Clear
5:55 AM 78.4 °F - 78.4 °F 100% 29.90 in 7.0 mi Calm Calm - N/A   Clear
6:15 AM 78.6 °F - 78.6 °F 100% 29.91 in 5.0 mi Calm Calm - N/A   Mostly Cloudy
6:35 AM 78.1 °F - 78.1 °F 100% 29.91 in 4.0 mi Calm Calm - N/A   Overcast
6:55 AM 77.9 °F - 77.9 °F 100% 29.92 in 5.0 mi Calm Calm - N/A   Overcast
7:15 AM 78.3 °F - 78.3 °F 100% 29.93 in 5.0 mi Calm Calm - N/A   Overcast
7:35 AM 78.8 °F - 78.8 °F 100% 29.93 in 5.0 mi Calm Calm - N/A   Overcast
7:55 AM 79.3 °F - 79.3 °F 100% 29.94 in 5.0 mi Calm Calm - N/A   Overcast
8:15 AM 80.6 °F 89.3 °F 80.6 °F 100% 29.94 in 10.0 mi Calm Calm - N/A   Overcast
8:35 AM 81.7 °F 93.3 °F 81.7 °F 100% 29.95 in 10.0 mi Calm Calm - N/A   Mostly Cloudy
8:55 AM 83.7 °F 98.1 °F 81.3 °F 93% 29.95 in 10.0 mi SSE 3.5 mph - N/A   Mostly Cloudy
9:15 AM 85.6 °F 101.8 °F 81.1 °F 86% 29.95 in 10.0 mi SSW 4.6 mph - N/A   Overcast
9:35 AM 86.4 °F 102.0 °F 80.4 °F 82% 29.95 in 10.0 mi South 5.8 mph - N/A   Mostly Cloudy
9:55 AM 89.6 °F 106.1 °F 79.7 °F 72% 29.95 in 10.0 mi South 8.1 mph - N/A   Overcast
10:15 AM 89.4 °F 104.2 °F 78.6 °F 70% 29.95 in 10.0 mi South 6.9 mph - N/A   Overcast
10:35 AM 90.9 °F 107.1 °F 79.0 °F 68% 29.94 in 10.0 mi SSW 5.8 mph - N/A   Scattered Clouds
10:55 AM 93.0 °F 107.4 °F 77.4 °F 60% 29.94 in 10.0 mi SSW 6.9 mph - N/A   Mostly Cloudy
11:15 AM 92.8 °F 106.2 °F 76.5 °F 59% 29.94 in 10.0 mi South 6.9 mph - N/A   Mostly Cloudy
11:35 AM 92.5 °F 106.0 °F 76.8 °F 60% 29.94 in 10.0 mi South 5.8 mph - N/A   Scattered Clouds
11:55 AM 94.8 °F 106.2 °F 74.8 °F 52% 29.94 in 10.0 mi SSW 6.9 mph - N/A   Scattered Clouds
12:15 PM 95.0 °F 106.7 °F 74.8 °F 52% 29.93 in 7.0 mi SW 5.8 mph - N/A   Scattered Clouds
12:35 PM 96.1 °F 107.1 °F 74.3 °F 49% 29.92 in 10.0 mi South 8.1 mph - N/A   Scattered Clouds
12:55 PM 97.3 °F 108.6 °F 73.9 °F 47% 29.92 in 10.0 mi SSW 6.9 mph - N/A   Scattered Clouds
1:35 PM 97.7 °F 107.9 °F 73.4 °F 45% 29.91 in 10.0 mi South 4.6 mph - N/A   Scattered Clouds
1:55 PM 99.5 °F 111.4 °F 74.1 °F 44% 29.91 in 10.0 mi South 4.6 mph - N/A   Scattered Clouds
2:15 PM 99.3 °F 110.1 °F 73.0 °F 43% 29.90 in 10.0 mi South 5.8 mph - N/A   Scattered Clouds
2:35 PM 97.7 °F 106.4 °F 72.0 °F 43% 29.90 in 10.0 mi SSW 5.8 mph - N/A   Scattered Clouds
2:55 PM 100.9 °F 111.4 °F 72.7 °F 40% 29.89 in 10.0 mi South 6.9 mph - N/A   Scattered Clouds
3:15 PM 99.5 °F 108.9 °F 72.1 °F 41% 29.88 in 10.0 mi South 6.9 mph - N/A   Scattered Clouds
3:35 PM 102.2 °F 112.6 °F 72.1 °F 38% 29.87 in 10.0 mi South 5.8 mph - N/A   Scattered Clouds
3:55 PM 101.3 °F 110.5 °F 71.2 °F 38% 29.87 in 10.0 mi South 4.6 mph - N/A   Mostly Cloudy
4:15 PM 101.5 °F 110.1 °F 70.7 °F 37% 29.86 in 10.0 mi SW 3.5 mph - N/A   Scattered Clouds
4:35 PM 101.1 °F 110.1 °F 71.1 °F 38% 29.85 in 10.0 mi SSE 5.8 mph - N/A   Scattered Clouds
4:55 PM 99.1 °F 107.4 °F 71.1 °F 40% 29.85 in 10.0 mi South 6.9 mph - N/A   Scattered Clouds
5:15 PM 101.1 °F 111.0 °F 71.6 °F 39% 29.84 in 10.0 mi South 6.9 mph - N/A   Clear
5:35 PM 100.8 °F 110.2 °F 71.6 °F 39% 29.84 in 10.0 mi South 6.9 mph - N/A   Scattered Clouds
5:55 PM 100.6 °F 109.7 °F 71.6 °F 39% 29.84 in 10.0 mi South 5.8 mph - N/A   Scattered Clouds
6:15 PM 99.5 °F 108.9 °F 72.0 °F 41% 29.84 in 10.0 mi SSE 6.9 mph - N/A   Clear
6:35 PM 98.8 °F 109.7 °F 73.2 °F 44% 29.84 in 10.0 mi South 6.9 mph - N/A   Clear
6:55 PM 97.5 °F 109.0 °F 74.1 °F 47% 29.84 in 10.0 mi SSE 9.2 mph - N/A   Clear
7:15 PM 95.4 °F 106.8 °F 74.8 °F 51% 29.84 in 10.0 mi SSE 8.1 mph - N/A   Clear
7:35 PM 94.1 °F 105.2 °F 74.8 °F 53% 29.84 in 10.0 mi South 5.8 mph - N/A   Clear
7:55 PM 93.2 °F 103.7 °F 74.5 °F 54% 29.84 in 10.0 mi South 8.1 mph - N/A   Clear
8:15 PM 91.8 °F 102.1 °F 74.5 °F 57% 29.85 in 10.0 mi SSE 4.6 mph - N/A   Clear
8:35 PM 90.7 °F 100.1 °F 74.1 °F 58% 29.85 in 10.0 mi South 6.9 mph - N/A   Clear
8:55 PM 89.4 °F 98.9 °F 74.3 °F 61% 29.85 in 10.0 mi SSE 4.6 mph - N/A   Clear
9:15 PM 88.3 °F 98.9 °F 75.6 °F 66% 29.86 in 10.0 mi SSE 5.8 mph - N/A   Clear
9:35 PM 87.3 °F 99.3 °F 77.2 °F 72% 29.87 in 10.0 mi SSE 5.8 mph - N/A   Clear
9:55 PM 86.5 °F 98.8 °F 77.9 °F 75% 29.88 in 10.0 mi SSE 4.6 mph - N/A   Clear
10:15 PM 85.5 °F 97.2 °F 77.9 °F 78% 29.89 in 10.0 mi SSE 5.8 mph - N/A   Clear
10:35 PM 85.1 °F 97.1 °F 78.3 °F 80% 29.90 in 10.0 mi South 4.6 mph - N/A   Clear
10:55 PM 84.4 °F 95.9 °F 78.4 °F 82% 29.90 in 10.0 mi SSE 4.6 mph - N/A   Clear
11:15 PM 83.7 °F 94.9 °F 78.8 °F 85% 29.90 in 10.0 mi SSE 5.8 mph - N/A   Clear
11:35 PM 83.5 °F 94.7 °F 79.0 °F 86% 29.91 in 10.0 mi South 4.6 mph - N/A   Clear
11:55 PM 83.3 °F 94.5 °F 79.2 °F 87% 29.91 in 10.0 mi South 3.5 mph - N/A   Clear